Regional Weather Roundup
Issued by NWS Austin/San Antonio, TX

Current Version | Previous Version | Text Only | Print | Product List | Glossary On
Versions: 1 2 3 4 5 6 7 8 9 10 11 12 13 14 15 16 17 18 19 20 21 22 23 24 25 26 27 28 29 30 31 32 33 34 35 36 37 38 39 40 41 42 43 44 45 46 47 48 49 50
000
ASUS44 KEWX 040213
RWREWX
SOUTH TEXAS REGIONAL WEATHER ROUNDUP
NATIONAL WEATHER SERVICE AUSTIN/SAN ANTONIO TX
900 PM CDT MON OCT 03 2022

NOTE: "FAIR" INDICATED FEW OR NO CLOUDS BELOW 12,000 FEET WITH NO
SIGNIFICANT WEATHER AND/OR OBSTRUCTIONS TO VISIBILITY.

* - THESE STATIONS ARE NOT NWS OR FAA STATIONS...AND ARE NOT SUBJECT
    TO NWS AND FAA QUALITY CONTROL.

TXZ171-172-183>190-040300-
TEXAS HILL COUNTRY AND EDWARDS PLATEAU

CITY           SKY/WX    TMP DP  RH WIND       PRES   REMARKS
JUNCTION       MOCLDY    74  41  30 NE6       30.12R
*LLANO         CLOUDY    68  39  34 CALM      30.10R
BURNET         MOCLDY    73  39  29 NE5       30.13R
*HORSESHOE BAY MOCLDY    72  38  29 SE3       30.11R
*LAGO VISTA      N/A     70  36  29 E5        30.12R
*KERRVILLE     MOCLDY    72  42  34 SE3       30.12S
*FREDERICKSBRG MOCLDY    71  40  32 CALM      30.12R
*ROCKSPRINGS   MOCLDY    68  52  56 S6        30.19R
*BOERNE        MOCLDY    68  41  37 CALM      30.12R
HONDO          MOCLDY    73  48  41 S5        30.09R
*UVALDE        MOCLDY    71  47  41 SE3       30.11S
DEL RIO        PTCLDY    76  53  44 MISG      30.07R
*LAUGHLIN AFB  CLOUDY    72  53  52 E6        30.06R
*SPOFFORD      PTCLDY    71  53  53 N3        30.08R
CARRIZO SPRGS  CLOUDY    72  50  46 MISG      30.07S
*FAITH RANCH   CLEAR     75  54  46 S3        30.10R
$$

TXZ173-191>194-202-209-217>225-228-040300-
CENTRAL AND SOUTH CENTRAL TEXAS

CITY           SKY/WX    TMP DP  RH WIND       PRES   REMARKS
GEORGETOWN     MOCLDY    71  45  39 CALM      30.12R
*TAYLOR        MOCLDY    65  47  51 CALM      30.09S
AUSTIN/BERGSTM MOCLDY    67  47  48 CALM      30.08R
AUSTIN/MABRY   MOCLDY    75  45  34 CALM      30.10R
*PFLUGERVILLE  MOCLDY    75  37  25 E3        30.08S
SAN MARCOS     MOCLDY   N/A N/A N/A E5          N/A
NEW BRAUNFELS  MOCLDY    75  40  28 E6        30.07R
*RANDOLPH AFB  MOCLDY    73  41  31 CALM      30.06R
*SEGUIN        CLOUDY    73  42  31 CALM      30.06R
SAN ANTONIO    MOCLDY    77  42  28 S5        30.09R
STINSON FIELD  MOCLDY    75  46  35 CALM      30.06R
*KELLY FIELD   CLOUDY    74  44  34 CALM      30.06R
*PLEASANTON    MOCLDY    70  52  51 CALM      30.08S
*KENEDY        MOCLDY    71  52  50 CALM      30.08S
*LA GRANGE     NOT AVBL
*GIDDINGS      MOCLDY    70  43  37 CALM      30.09R
*GONZALES      MOCLDY    73  45  36 CALM      30.07S
$$

TXZ163>164-176>182-195>201-210>213-226-227-235-040300-
SOUTHEAST TEXAS

CITY           SKY/WX    TMP DP  RH WIND       PRES   REMARKS
COLLEGE STN    MOCLDY    74  48  39 CALM      30.08R
*BRYAN         MOCLDY    76  45  33 CALM      30.10R
*CALDWELL      MOCLDY    69  49  50 N3        30.08S
*CROCKETT      MOCLDY    66  48  52 CALM      30.09R
*BRENHAM       MOCLDY    73  46  38 CALM      30.07S
HUNTSVILLE     MOCLDY    72  48  42 CALM      30.07R
CONROE         MOCLDY    65  55  70 CALM      30.08R
HOUSTON BUSH   MOCLDY    70  53  54 CALM      30.06R
HOUSTON HOBBY  MOCLDY    77  51  40 S6        30.05S
*HOUSTON SW AP NOT AVBL
PEARLAND       MOCLDY    71  55  56 CALM      30.07S
HOUSTON HOOKS  MOCLDY    68  52  56 CALM      30.06S
ELLINGTON FLD  CLEAR     73  54  49 S6        30.06R
SUGAR LAND     MOCLDY    71  53  52 CALM      30.06R
*HOUSTON EXEC  MOCLDY    70  55  60 CALM      30.08S
*CLEVELAND MUN NOT AVBL
*WHARTON       MOCLDY    69  49  49 CALM      30.08R
*COLUMBUS      FAIR      68  47  47 CALM      30.09R
*EAGLE LAKE    MOCLDY    70  48  46 S6        30.07S
$$

TXZ214>216-236>238-040300-
THE UPPER TEXAS COAST

CITY           SKY/WX    TMP DP  RH WIND       PRES   REMARKS
*ORANGE        PTCLDY    69  60  71 CALM      30.08R
PORT ARTHUR    PTCLDY    67  60  78 SW6       30.05R
GALVESTON      MOCLDY    74  60  61 S5        30.07R
ANGLETON       MOCLDY    66  59  78 CALM      30.06S
*BAY CITY      MOCLDY    70  59  68 CALM      30.07S
PALACIOS       MOCLDY    73  62  68 SE6       30.06R
$$

TXZ229>234-239>247-040300-
TEXAS COASTAL BEND AND RIO GRANDE PLAINS

CITY           SKY/WX    TMP DP  RH WIND       PRES   REMARKS
VICTORIA       MOCLDY    73  53  49 VRB5      30.06R
*BEEVILLE      MOCLDY    73  49  42 CALM      30.07R
ROCKPORT       MOCLDY    73  62  68 SE3       30.06R
*PORT ARANSAS  MOCLDY   N/A N/A N/A NE3       30.07S
*PORT LAVACA   NOT AVBL
*INGLESIDE     MOCLDY    74  64  70 CALM      30.05S
CORPUS CHRISTI CLOUDY    79  61  53 SE3       30.06S
CORPUS NAS     CLOUDY    79  65  62 S3        30.06R
*ROBSTOWN      MOCLDY    77  61  58 MISG      30.07S
ALICE          MOCLDY    72  63  73 SE5       30.06S
KINGSVILLE NAS NOT AVBL
COTULLA        CLOUDY    77  50  38 NE6       30.07R
LAREDO         CLOUDY    78  56  46 E5        30.06S
$$

TXZ248>255-040300-
DEEP SOUTH TEXAS

CITY           SKY/WX    TMP DP  RH WIND       PRES   REMARKS
BROWNSVILLE    MOCLDY    76  64  66 NE5       30.04S
PORT ISABEL    MOCLDY    77  65  66 NE3       30.05R
HARLINGEN      MOCLDY    73  63  70 E5        30.04S
*HEBBRONVILLE  MOCLDY    74  60  61 CALM      30.08S
MCALLEN        MOCLDY    79  61  53 E9        30.05R
*WESLACO       MOCLDY    77  61  59 E6        30.05S
FALFURRIAS     MOCLDY    73  66  77 E5        30.05S
EDINBURG       MOCLDY    76  66  71 E6        30.06S
*ZAPATA        MOCLDY    78  56  46 NE5       30.06S
$$

TXZ213>215-236>238-242>244-246-247-251-254-255-040300-
CMAN STATIONS

STATION/POSITION TIME  TEMP    WIND        PRES    WAVE
                       AIR SEA DIR/SP/G            HT/PER
                 (UTC) (F)     (DEG/KT/KT) (MB)    (FT/S)
SEA RIM ST PARK  0200   72     280/  7/  7 1018.0
NORTH JETTY/GLS  0130   77 78  180/  3/  4 1016.6
EAGLE POINT      0130   75 77  240/  3/  4 1017.3
MORGANS POINT    0130   76 78  160/  3/  6 1017.2
MISSION/ARANSAS  0100   79     170/  4     1018.0
PORT O`CONNOR    0124   78 86   90/  4/  6 1017.4
PORT ARANSAS     0200   79      40/  3/  5   N/A
BAFFIN BAY       0124   78 81   30/  5/  5 1018.0
PORT ISABEL      0124   79 83   30/  5/  8 1016.8
$$



USA.gov is the U.S. government's official web portal to all federal, state and local government web resources and services.